SWR2140 LSZH-LEVC

Flight info

Callsign SWR2140
Flight time 1h 47m
Altitude 35000
Route VEBIT T50 ROTOS Z669 ULMES DCT VADAR DCT GEVEA DCT INCUS DCT BALSI DCT RETNO DCT TUPOX DCT MTG DCT DIVKO DCT VATIR DCT PIVUS DCT SULID DCT SISMO DCT AKAMU DCT EPAMA DCT IXUPA N733 ARGOR
Aircraft A321/M-SDE3FGHIRWY/LB1

Departure

Time 2026-04-30 19:30
Airport Zürich Airport (LSZH)

Arrival

Time 2026-04-30 21:17
Airport Valencia Airport (LEVC)
Time Latitude Longitude Altitude Speed Heading
2026-04-30 18:56 47.45351 8.55701 1409 ft 0 kts
2026-04-30 19:12 47.45349 8.55701 1407 ft 1 kts
2026-04-30 19:12 47.45331 8.55698 1413 ft 3 kts 360°
2026-04-30 19:13 47.45292 8.55706 1413 ft 3 kts 338°
2026-04-30 19:13 47.45265 8.55739 1408 ft 2 kts 279°
2026-04-30 19:13 47.45264 8.55743 1407 ft 0 kts 275°
2026-04-30 19:16 47.45264 8.55740 1408 ft 2 kts 275°
2026-04-30 19:16 47.45267 8.55698 1410 ft 6 kts 276°
2026-04-30 19:16 47.45305 8.55484 1411 ft 17 kts 298°
2026-04-30 19:17 47.45388 8.55379 1402 ft 15 kts 333°
2026-04-30 19:17 47.45547 8.55269 1406 ft 10 kts 335°
2026-04-30 19:17 47.45604 8.55229 1400 ft 8 kts 335°
2026-04-30 19:18 47.45725 8.55144 1401 ft 18 kts 335°
2026-04-30 19:18 47.45924 8.55006 1402 ft 26 kts 335°
2026-04-30 19:18 47.46089 8.54895 1387 ft 26 kts 335°
2026-04-30 19:19 47.46255 8.54778 1387 ft 27 kts 335°
2026-04-30 19:19 47.46424 8.54663 1386 ft 26 kts 335°
2026-04-30 19:19 47.46732 8.54452 1385 ft 25 kts 336°
2026-04-30 19:20 47.46893 8.54355 1379 ft 24 kts 335°
2026-04-30 19:20 47.47041 8.54253 1384 ft 23 kts 335°
2026-04-30 19:20 47.47309 8.54066 1387 ft 20 kts 334°
2026-04-30 19:21 47.47426 8.53986 1395 ft 17 kts 335°
2026-04-30 19:21 47.47623 8.53851 1402 ft 13 kts 335°
2026-04-30 19:22 47.47703 8.53722 1403 ft 0 kts 252°
2026-04-30 19:27 47.47703 8.53719 1400 ft 2 kts 252°
2026-04-30 19:28 47.47692 8.53690 1404 ft 8 kts 233°
2026-04-30 19:28 47.47526 8.53625 1408 ft 8 kts 156°
2026-04-30 19:29 47.47452 8.53676 1400 ft 33 kts 155°
2026-04-30 19:29 47.47014 8.53982 1382 ft 103 kts 155°
2026-04-30 19:30 47.44136 8.55988 2571 ft 148 kts 147°
2026-04-30 19:30 47.42868 8.58078 3438 ft 150 kts 99°
2026-04-30 19:31 47.43439 8.61279 3798 ft 189 kts 48°
2026-04-30 19:31 47.44645 8.62234 3993 ft 211 kts 13°
2026-04-30 19:31 47.47197 8.60120 5158 ft 240 kts 291°
2026-04-30 19:32 47.47355 8.57682 5794 ft 242 kts 262°
2026-04-30 19:32 47.47064 8.55251 6596 ft 240 kts 249°
2026-04-30 19:32 47.46287 8.53037 7152 ft 250 kts 233°
2026-04-30 19:32 47.45250 8.50852 7445 ft 273 kts 236°
2026-04-30 19:33 47.44223 8.48400 7951 ft 286 kts 239°
2026-04-30 19:33 47.43221 8.45834 8669 ft 291 kts 239°
2026-04-30 19:33 47.42226 8.43217 9490 ft 293 kts 240°
2026-04-30 19:33 47.41228 8.40577 10282 ft 295 kts 240°
2026-04-30 19:34 47.40198 8.37862 10673 ft 313 kts 240°
2026-04-30 19:34 47.39092 8.34962 10864 ft 336 kts 240°
2026-04-30 19:34 47.36733 8.28517 11342 ft 373 kts 242°
2026-04-30 19:35 47.35529 8.25102 11979 ft 377 kts 242°
2026-04-30 19:35 47.34313 8.21632 12592 ft 383 kts 242°
2026-04-30 19:35 47.33076 8.18107 13146 ft 390 kts 242°
2026-04-30 19:35 47.31817 8.14538 13831 ft 393 kts 242°
2026-04-30 19:36 47.30546 8.10950 14420 ft 399 kts 242°
2026-04-30 19:36 47.29254 8.07313 15039 ft 401 kts 242°
2026-04-30 19:36 47.26683 7.99958 16211 ft 407 kts 246°
2026-04-30 19:37 47.25599 7.96087 16755 ft 411 kts 248°
2026-04-30 19:37 47.24510 7.92182 17288 ft 415 kts 248°
2026-04-30 19:37 47.23408 7.88233 17826 ft 419 kts 248°
2026-04-30 19:37 47.22295 7.84258 18343 ft 423 kts 248°
2026-04-30 19:38 47.21165 7.80242 18822 ft 427 kts 247°
2026-04-30 19:38 47.20024 7.76204 19283 ft 429 kts 247°
2026-04-30 19:38 47.18677 7.72262 19747 ft 432 kts 238°
2026-04-30 19:38 47.16927 7.68667 20201 ft 434 kts 231°
2026-04-30 19:39 47.15040 7.65178 20668 ft 437 kts 231°
2026-04-30 19:39 47.13145 7.61678 21119 ft 440 kts 231°
2026-04-30 19:39 47.11239 7.58154 21624 ft 442 kts 231°
2026-04-30 19:39 47.09323 7.54613 22087 ft 444 kts 231°
2026-04-30 19:40 47.07394 7.51053 22552 ft 447 kts 231°
2026-04-30 19:40 47.05451 7.47476 22993 ft 450 kts 231°
2026-04-30 19:40 47.03492 7.43876 23441 ft 453 kts 231°
2026-04-30 19:40 47.01521 7.40254 23867 ft 456 kts 231°
2026-04-30 19:41 46.99538 7.36618 24235 ft 458 kts 231°
2026-04-30 19:41 46.97539 7.32971 24610 ft 460 kts 231°
2026-04-30 19:41 46.95535 7.29319 24987 ft 462 kts 231°
2026-04-30 19:41 46.93515 7.25642 25356 ft 464 kts 231°
2026-04-30 19:42 46.91486 7.21947 25744 ft 466 kts 231°
2026-04-30 19:42 46.89456 7.18248 26112 ft 468 kts 231°
2026-04-30 19:42 46.87419 7.14536 26466 ft 470 kts 231°
2026-04-30 19:42 46.85364 7.10796 26810 ft 472 kts 231°
2026-04-30 19:43 46.83302 7.07052 27145 ft 474 kts 231°
2026-04-30 19:43 46.81238 7.03309 27478 ft 476 kts 231°
2026-04-30 19:43 46.79150 6.99528 27826 ft 478 kts 231°
2026-04-30 19:44 46.74967 6.91969 28515 ft 481 kts 231°
2026-04-30 19:44 46.72860 6.88173 28954 ft 480 kts 231°
2026-04-30 19:44 46.70766 6.84408 29448 ft 477 kts 231°
2026-04-30 19:44 46.68683 6.80671 29914 ft 476 kts 231°
2026-04-30 19:45 46.66596 6.76929 30363 ft 474 kts 231°
2026-04-30 19:45 46.64492 6.73249 30726 ft 473 kts 229°
2026-04-30 19:45 46.62301 6.69675 31087 ft 473 kts 227°
2026-04-30 19:45 46.60045 6.66193 31440 ft 473 kts 226°
2026-04-30 19:46 46.57756 6.62761 31784 ft 472 kts 225°
2026-04-30 19:46 46.55463 6.59341 32144 ft 472 kts 225°
2026-04-30 19:46 46.53182 6.55905 32495 ft 472 kts 226°
2026-04-30 19:46 46.50918 6.52451 32859 ft 472 kts 226°
2026-04-30 19:47 46.48670 6.48989 33221 ft 472 kts 226°
2026-04-30 19:47 46.47185 6.46689 33461 ft 472 kts 227°
2026-04-30 19:47 46.44195 6.42044 33960 ft 470 kts 226°
2026-04-30 19:47 46.41968 6.38595 34361 ft 468 kts 226°
2026-04-30 19:48 46.39742 6.35162 34696 ft 467 kts 226°
2026-04-30 19:48 46.37517 6.31744 35047 ft 465 kts 226°
2026-04-30 19:48 46.35300 6.28353 35192 ft 462 kts 226°
2026-04-30 19:49 46.30899 6.21637 35222 ft 459 kts 226°
2026-04-30 19:49 46.26084 6.15661 35222 ft 457 kts 210°
2026-04-30 19:49 46.23260 6.13570 35219 ft 456 kts 201°
2026-04-30 19:50 46.17130 6.11384 35220 ft 454 kts 188°
2026-04-30 19:50 46.10895 6.10007 35218 ft 453 kts 188°
2026-04-30 19:51 46.04657 6.08618 35221 ft 453 kts 188°
2026-04-30 19:51 45.98421 6.07226 35224 ft 454 kts 188°
2026-04-30 19:52 45.92176 6.05845 35228 ft 454 kts 188°
2026-04-30 19:52 45.85938 6.04483 35229 ft 454 kts 188°
2026-04-30 19:53 45.79693 6.03116 35222 ft 454 kts 189°
2026-04-30 19:53 45.73455 6.01735 35215 ft 454 kts 189°
2026-04-30 19:54 45.67221 6.00356 35200 ft 453 kts 189°
2026-04-30 19:54 45.60987 5.98985 35199 ft 453 kts 189°
2026-04-30 19:55 45.54761 5.97622 35202 ft 453 kts 189°
2026-04-30 19:55 45.48530 5.96260 35203 ft 453 kts 189°
2026-04-30 19:56 45.42344 5.94625 35198 ft 452 kts 193°
2026-04-30 19:56 45.36235 5.92608 35209 ft 451 kts 194°
2026-04-30 19:57 45.30137 5.90568 35217 ft 450 kts 194°
2026-04-30 19:57 45.24072 5.88647 35216 ft 449 kts 193°
2026-04-30 19:58 45.17967 5.86784 35226 ft 448 kts 193°
2026-04-30 19:58 45.11843 5.84905 35229 ft 447 kts 194°
2026-04-30 19:59 45.05768 5.83022 35229 ft 447 kts 194°
2026-04-30 20:00 44.96702 5.80228 35242 ft 445 kts 194°
2026-04-30 20:00 44.90652 5.78376 35246 ft 445 kts 194°
2026-04-30 20:01 44.81595 5.75586 35244 ft 444 kts 194°
2026-04-30 20:01 44.75563 5.73736 35241 ft 444 kts 194°
2026-04-30 20:02 44.66507 5.70989 35232 ft 444 kts 194°
2026-04-30 20:03 44.57440 5.68233 35229 ft 445 kts 194°
2026-04-30 20:03 44.51390 5.66399 35229 ft 445 kts 194°
2026-04-30 20:04 44.45331 5.64564 35223 ft 446 kts 195°
2026-04-30 20:05 44.36317 5.61446 35217 ft 443 kts 204°
2026-04-30 20:05 44.27703 5.56696 35205 ft 444 kts 205°
2026-04-30 20:06 44.21943 5.53536 35208 ft 445 kts 205°
2026-04-30 20:06 44.16162 5.50400 35219 ft 446 kts 205°
2026-04-30 20:07 44.10371 5.47253 35217 ft 447 kts 205°
2026-04-30 20:08 44.01670 5.42516 35216 ft 448 kts 205°
2026-04-30 20:08 43.95858 5.39372 35220 ft 448 kts 205°
2026-04-30 20:09 43.90055 5.36230 35199 ft 448 kts 205°
2026-04-30 20:09 43.81340 5.31532 35188 ft 448 kts 205°
2026-04-30 20:10 43.73616 5.27373 35192 ft 447 kts 205°
2026-04-30 20:11 43.64931 5.22706 35198 ft 446 kts 206°
2026-04-30 20:11 43.59150 5.19612 35204 ft 445 kts 206°
2026-04-30 20:12 43.50494 5.14994 35190 ft 444 kts 206°
2026-04-30 20:13 43.44737 5.11926 35192 ft 443 kts 206°
2026-04-30 20:13 43.39027 5.08751 35190 ft 440 kts 212°
2026-04-30 20:14 43.33936 5.04247 35190 ft 435 kts 219°
2026-04-30 20:14 43.28947 4.99551 35181 ft 435 kts 219°
2026-04-30 20:15 43.23956 4.94858 35186 ft 434 kts 219°
2026-04-30 20:15 43.18973 4.90173 35194 ft 434 kts 219°
2026-04-30 20:16 43.13989 4.85503 35198 ft 434 kts 219°
2026-04-30 20:16 43.09005 4.80858 35208 ft 433 kts 220°
2026-04-30 20:17 43.03929 4.76410 35210 ft 436 kts 214°
2026-04-30 20:17 42.98631 4.72390 35207 ft 435 kts 214°
2026-04-30 20:18 42.93334 4.68368 35204 ft 435 kts 214°
2026-04-30 20:18 42.88056 4.64377 35193 ft 435 kts 215°
2026-04-30 20:19 42.82770 4.60389 35193 ft 434 kts 215°
2026-04-30 20:19 42.77492 4.56411 35195 ft 433 kts 215°
2026-04-30 20:20 42.72216 4.52450 35195 ft 433 kts 214°
2026-04-30 20:20 42.66943 4.48502 35198 ft 432 kts 214°
2026-04-30 20:21 42.61677 4.44561 35195 ft 432 kts 214°
2026-04-30 20:21 42.56413 4.40620 35193 ft 432 kts 214°
2026-04-30 20:22 42.51153 4.36688 35171 ft 432 kts 214°
2026-04-30 20:22 42.45886 4.32763 35178 ft 432 kts 214°
2026-04-30 20:23 42.40622 4.28848 35175 ft 432 kts 214°
2026-04-30 20:23 42.35356 4.24948 35170 ft 431 kts 214°
2026-04-30 20:24 42.30093 4.21052 35161 ft 431 kts 214°
2026-04-30 20:24 42.24832 4.17173 35157 ft 431 kts 214°
2026-04-30 20:25 42.16949 4.11360 35162 ft 430 kts 214°
2026-04-30 20:26 42.09077 4.05556 35152 ft 430 kts 214°
2026-04-30 20:26 42.01204 3.99797 35145 ft 429 kts 214°
2026-04-30 20:27 41.90700 3.92160 35129 ft 430 kts 212°
2026-04-30 20:28 41.79975 3.84986 35140 ft 431 kts 211°
2026-04-30 20:30 41.66570 3.76035 35134 ft 431 kts 211°
2026-04-30 20:31 41.50482 3.65311 35137 ft 431 kts 211°
2026-04-30 20:32 41.37095 3.56438 35131 ft 431 kts 210°
2026-04-30 20:33 41.29008 3.51097 35122 ft 431 kts 210°
2026-04-30 20:34 41.20992 3.45822 35133 ft 430 kts 210°
2026-04-30 20:35 41.12783 3.40959 35129 ft 433 kts 205°
2026-04-30 20:35 41.04301 3.36798 35128 ft 433 kts 204°
2026-04-30 20:36 40.98679 3.33966 35139 ft 432 kts 205°
2026-04-30 20:37 40.90294 3.29609 35146 ft 432 kts 205°
2026-04-30 20:37 40.84698 3.26726 35134 ft 431 kts 205°
2026-04-30 20:38 40.79105 3.23866 35143 ft 431 kts 205°
2026-04-30 20:38 40.73525 3.21016 35143 ft 430 kts 205°
2026-04-30 20:39 40.65164 3.16755 35137 ft 429 kts 205°
2026-04-30 20:40 40.57080 3.11827 35133 ft 426 kts 212°
2026-04-30 20:40 40.51883 3.08080 35133 ft 426 kts 212°
2026-04-30 20:41 40.44086 3.02493 35134 ft 426 kts 212°
2026-04-30 20:41 40.38895 2.98781 35128 ft 425 kts 211°
2026-04-30 20:42 40.33703 2.95073 35128 ft 424 kts 211°
2026-04-30 20:43 40.25924 2.89528 35120 ft 424 kts 212°
2026-04-30 20:43 40.20745 2.85837 35110 ft 424 kts 212°
2026-04-30 20:44 40.12985 2.80327 35117 ft 423 kts 212°
2026-04-30 20:45 40.02637 2.73009 35117 ft 423 kts 212°
2026-04-30 20:45 39.97463 2.69356 35108 ft 422 kts 212°
2026-04-30 20:46 39.87128 2.62098 35124 ft 421 kts 212°
2026-04-30 20:47 39.79406 2.56671 35119 ft 420 kts 212°
2026-04-30 20:48 39.71718 2.51245 35111 ft 417 kts 217°
2026-04-30 20:48 39.69458 2.48949 35113 ft 410 kts 228°
2026-04-30 20:48 39.67660 2.46177 35111 ft 406 kts 238°
2026-04-30 20:49 39.66323 2.42963 35107 ft 403 kts 249°
2026-04-30 20:49 39.65529 2.39493 35103 ft 403 kts 259°
2026-04-30 20:50 39.64931 2.28609 35095 ft 404 kts 265°
2026-04-30 20:50 39.64590 2.21334 35088 ft 404 kts 265°
2026-04-30 20:51 39.64300 2.15284 35091 ft 404 kts 265°
2026-04-30 20:51 39.63761 2.04368 35093 ft 404 kts 265°
2026-04-30 20:52 39.63406 1.97093 35093 ft 404 kts 265°
2026-04-30 20:53 39.62862 1.86175 35094 ft 405 kts 264°
2026-04-30 20:53 39.62483 1.78871 35088 ft 406 kts 264°
2026-04-30 20:54 39.61910 1.67892 35089 ft 407 kts 264°
2026-04-30 20:55 39.61339 1.56896 35093 ft 408 kts 264°
2026-04-30 20:55 39.60948 1.49561 35101 ft 408 kts 264°
2026-04-30 20:56 39.60347 1.38542 35100 ft 409 kts 264°
2026-04-30 20:57 39.59738 1.27511 35098 ft 409 kts 264°
2026-04-30 20:57 39.59530 1.23830 34885 ft 409 kts 264°
2026-04-30 20:57 39.59320 1.20150 34642 ft 409 kts 264°
2026-04-30 20:58 39.58903 1.12794 34176 ft 409 kts 263°
2026-04-30 20:58 39.58694 1.09114 33928 ft 410 kts 263°
2026-04-30 20:58 39.58481 1.05413 33655 ft 411 kts 263°
2026-04-30 20:58 39.58265 1.01705 33387 ft 413 kts 263°
2026-04-30 20:59 39.57829 0.94264 32776 ft 415 kts 264°
2026-04-30 20:59 39.57605 0.90503 31821 ft 421 kts 264°
2026-04-30 21:00 39.57148 0.82867 29953 ft 431 kts 265°
2026-04-30 21:00 39.56686 0.75050 27905 ft 438 kts 264°
2026-04-30 21:01 39.56198 0.67052 25616 ft 451 kts 264°
2026-04-30 21:01 39.55947 0.63017 24950 ft 446 kts 264°
2026-04-30 21:01 39.55458 0.55112 23418 ft 440 kts 264°
2026-04-30 21:02 39.55212 0.51131 22666 ft 435 kts 264°
2026-04-30 21:02 39.54974 0.47307 22008 ft 428 kts 264°
2026-04-30 21:02 39.54735 0.43490 21372 ft 422 kts 264°
2026-04-30 21:02 39.54500 0.39728 20736 ft 416 kts 264°
2026-04-30 21:03 39.54268 0.36021 20127 ft 411 kts 264°
2026-04-30 21:03 39.54037 0.32356 19538 ft 405 kts 264°
2026-04-30 21:03 39.53808 0.28750 18945 ft 400 kts 264°
2026-04-30 21:03 39.53573 0.25128 18170 ft 404 kts 264°
2026-04-30 21:04 39.53330 0.21466 17416 ft 402 kts 264°
2026-04-30 21:04 39.53089 0.17866 16705 ft 399 kts 264°
2026-04-30 21:04 39.52616 0.10814 15323 ft 393 kts 264°
2026-04-30 21:05 39.52383 0.07295 14630 ft 390 kts 264°
2026-04-30 21:05 39.52152 0.03756 13935 ft 389 kts 265°
2026-04-30 21:05 39.51928 0.00325 13189 ft 386 kts 265°
2026-04-30 21:05 39.51701 -0.03120 12521 ft 383 kts 264°
2026-04-30 21:06 39.51471 -0.06545 11846 ft 380 kts 265°
2026-04-30 21:06 39.51241 -0.09932 11208 ft 376 kts 265°
2026-04-30 21:06 39.51012 -0.13282 11031 ft 360 kts 265°
2026-04-30 21:06 39.50813 -0.16405 10724 ft 348 kts 268°
2026-04-30 21:07 39.51216 -0.19488 10211 ft 345 kts 291°
2026-04-30 21:07 39.52200 -0.22240 10097 ft 330 kts 293°
2026-04-30 21:07 39.53065 -0.24919 9974 ft 316 kts 291°
2026-04-30 21:07 39.53880 -0.27497 9836 ft 303 kts 291°
2026-04-30 21:08 39.54661 -0.29970 9709 ft 290 kts 291°
2026-04-30 21:08 39.55411 -0.32353 9490 ft 282 kts 291°
2026-04-30 21:08 39.56146 -0.34696 9117 ft 280 kts 291°
2026-04-30 21:08 39.56874 -0.37028 8720 ft 279 kts 291°
2026-04-30 21:09 39.57594 -0.39352 8328 ft 277 kts 291°
2026-04-30 21:09 39.58307 -0.41662 7958 ft 275 kts 291°
2026-04-30 21:09 39.59015 -0.43952 7586 ft 273 kts 291°
2026-04-30 21:09 39.59715 -0.46238 7196 ft 272 kts 291°
2026-04-30 21:10 39.60409 -0.48509 6827 ft 270 kts 291°
2026-04-30 21:10 39.61092 -0.50765 6452 ft 268 kts 291°
2026-04-30 21:10 39.61770 -0.53019 6055 ft 267 kts 291°
2026-04-30 21:10 39.62444 -0.55272 5600 ft 269 kts 291°
2026-04-30 21:11 39.63108 -0.57493 5438 ft 259 kts 291°
2026-04-30 21:11 39.63590 -0.59681 5305 ft 248 kts 276°
2026-04-30 21:11 39.63654 -0.61863 5198 ft 236 kts 269°
2026-04-30 21:11 39.63601 -0.63928 5088 ft 223 kts 268°
2026-04-30 21:12 39.63541 -0.65894 4911 ft 214 kts 267°
2026-04-30 21:12 39.63250 -0.67759 4606 ft 211 kts 240°
2026-04-30 21:12 39.62260 -0.69124 4285 ft 209 kts 213°
2026-04-30 21:12 39.60927 -0.69936 3822 ft 214 kts 192°
2026-04-30 21:13 39.59476 -0.70080 3664 ft 208 kts 171°
2026-04-30 21:13 39.58095 -0.69594 3525 ft 204 kts 152°
2026-04-30 21:13 39.56940 -0.68566 3343 ft 200 kts 133°
2026-04-30 21:13 39.56126 -0.67137 3113 ft 196 kts 114°
2026-04-30 21:14 39.55527 -0.65555 2853 ft 196 kts 114°
2026-04-30 21:14 39.54931 -0.63975 2596 ft 195 kts 114°
2026-04-30 21:14 39.54340 -0.62415 2355 ft 190 kts 114°
2026-04-30 21:14 39.53778 -0.60933 2110 ft 175 kts 114°
2026-04-30 21:15 39.53269 -0.59592 1871 ft 159 kts 113°
2026-04-30 21:15 39.52800 -0.58355 1668 ft 144 kts 114°
2026-04-30 21:15 39.52365 -0.57207 1466 ft 139 kts 113°
2026-04-30 21:15 39.51938 -0.56080 1291 ft 139 kts 114°
2026-04-30 21:16 39.51512 -0.54957 1102 ft 138 kts 114°
2026-04-30 21:16 39.51098 -0.53842 929 ft 137 kts 112°
2026-04-30 21:16 39.50679 -0.52725 794 ft 138 kts 114°
2026-04-30 21:16 39.50250 -0.51626 589 ft 136 kts 114°
2026-04-30 21:17 39.49833 -0.50524 376 ft 136 kts 114°
2026-04-30 21:17 39.49415 -0.49438 238 ft 128 kts 114°
2026-04-30 21:17 39.49082 -0.48549 210 ft 83 kts 116°
2026-04-30 21:17 39.48900 -0.48081 212 ft 34 kts 116°
2026-04-30 21:18 39.48819 -0.47865 204 ft 29 kts 115°
2026-04-30 21:18 39.48716 -0.47590 206 ft 40 kts 117°
2026-04-30 21:18 39.48652 -0.47340 191 ft 20 kts 89°
2026-04-30 21:18 39.48699 -0.47205 193 ft 16 kts 38°
2026-04-30 21:19 39.48793 -0.47189 186 ft 13 kts 345°
2026-04-30 21:19 39.48874 -0.47235 192 ft 12 kts 336°
2026-04-30 21:19 39.48932 -0.47304 193 ft 11 kts 297°
2026-04-30 21:19 39.48966 -0.47359 199 ft 6 kts 350°
2026-04-30 21:20 39.49008 -0.47344 198 ft 6 kts 15°
2026-04-30 21:20 39.49033 -0.47337 200 ft 2 kts 12°
2026-04-30 21:20 39.49041 -0.47334 198 ft 0 kts 12°
2026-04-30 21:20 39.49042 -0.47334 198 ft 0 kts 12°